When you browse on this site, cookies collect data to enhance your experience and personalize the content and advertising you see.
Visit our Privacy Policy to learn more. By continuing to use the site, you agree to this use of cookies and data.
  • In Hungary
  • List of Countries
  • For 7 days
  • Water Temperature
  • Weather Map
  • News
  • Weather Widgets
  • user-avatar
    Login

    Hourly Weather Alwaye

    Today, 8 December, Sunday

    Time Temperature Precipitation Wind Pressure Humidity
    00:00 +25°C° 0 mm 1 mps 758 mmHg 94%
    01:00 +25°C° 0 mm 1 mps 758 mmHg 94%
    02:00 +25°C° 0 mm 1 mps 757 mmHg 94%
    03:00 +25°C° 0 mm 1 mps 757 mmHg 94%
    04:00 +25°C° 0 mm 1 mps 758 mmHg 94%
    05:00 +25°C° 0 mm 1 mps 758 mmHg 94%
    06:00 +26°C° 0 mm 1 mps 758 mmHg 89%
    07:00 +27°C° 0 mm 1 mps 758 mmHg 85%
    08:00 +28°C° 0 mm 1 mps 759 mmHg 81%
    09:00 +30°C° 0 mm 1 mps 759 mmHg 72%
    10:00 +30°C° 0 mm 0 mps 759 mmHg 62%
    11:00 +33°C° 0 mm 0 mps 759 mmHg 51%
    12:00 +35°C° 0 mm 1 mps 758 mmHg 52%
    13:00 +35°C° 0 mm 2 mps 757 mmHg 52%
    14:00 +35°C° 0 mm 2 mps 756 mmHg 53%
    15:00 +34°C° 0.1 mm 2 mps 756 mmHg 61%
    16:00 +31°C° 0.1 mm 2 mps 756 mmHg 69%
    17:00 +30°C° 0 mm 1 mps 757 mmHg 76%
    18:00 +29°C° 0.1 mm 1 mps 757 mmHg 78%
    19:00 +28°C° 0.1 mm 1 mps 758 mmHg 81%
    20:00 +27°C° 0.1 mm 1 mps 758 mmHg 83%
    21:00 +27°C° 0 mm 1 mps 759 mmHg 84%
    22:00 +26°C° 0 mm 1 mps 759 mmHg 86%
    23:00 +26°C° 0 mm 2 mps 759 mmHg 87%

    Tomorrow, 9 December, Monday

    Time Temperature Precipitation Wind Pressure Humidity
    00:00 +25°C° 0 mm 1 mps 759 mmHg 87%
    01:00 +25°C° 0 mm 1 mps 758 mmHg 87%
    02:00 +25°C° 0 mm 1 mps 758 mmHg 87%
    03:00 +24°C° 0 mm 1 mps 758 mmHg 86%
    04:00 +24°C° 0 mm 1 mps 758 mmHg 85%
    05:00 +23°C° 0 mm 1 mps 758 mmHg 84%
    06:00 +25°C° 0 mm 1 mps 758 mmHg 79%
    07:00 +26°C° 0 mm 1 mps 759 mmHg 73%
    08:00 +27°C° 0 mm 1 mps 759 mmHg 67%
    09:00 +29°C° 0 mm 1 mps 759 mmHg 59%
    10:00 +30°C° 0 mm 0 mps 759 mmHg 50%
    11:00 +33°C° 0 mm 0 mps 758 mmHg 42%
    12:00 +34°C° 0 mm 1 mps 758 mmHg 42%
    13:00 +34°C° 0 mm 1 mps 757 mmHg 42%
    14:00 +35°C° 0 mm 2 mps 756 mmHg 43%
    15:00 +34°C° 0 mm 2 mps 756 mmHg 51%
    16:00 +31°C° 0 mm 2 mps 756 mmHg 59%
    17:00 +29°C° 0 mm 2 mps 757 mmHg 68%
    18:00 +28°C° 0 mm 1 mps 757 mmHg 71%
    19:00 +28°C° 0 mm 1 mps 758 mmHg 74%
    20:00 +27°C° 0 mm 1 mps 759 mmHg 77%
    21:00 +26°C° 0 mm 1 mps 759 mmHg 79%
    22:00 +26°C° 0 mm 1 mps 759 mmHg 80%
    23:00 +26°C° 0 mm 1 mps 759 mmHg 82%

    Day after tomorrow, 10 December, Tuesday

    Time Temperature Precipitation Wind Pressure Humidity
    00:00 +25°C° 0 mm 1 mps 758 mmHg 82%
    01:00 +25°C° 0 mm 1 mps 758 mmHg 83%
    02:00 +25°C° 0 mm 1 mps 757 mmHg 84%
    03:00 +24°C° 0 mm 1 mps 757 mmHg 84%
    04:00 +24°C° 0 mm 1 mps 757 mmHg 85%
    05:00 +24°C° 0 mm 1 mps 757 mmHg 85%
    06:00 +25°C° 0 mm 1 mps 758 mmHg 80%
    07:00 +26°C° 0 mm 1 mps 758 mmHg 74%
    08:00 +28°C° 0 mm 1 mps 759 mmHg 68%
    09:00 +30°C° 0 mm 1 mps 758 mmHg 61%
    10:00 +30°C° 0 mm 0 mps 758 mmHg 54%
    11:00 +33°C° 0 mm 0 mps 758 mmHg 47%
    12:00 +34°C° 0 mm 1 mps 757 mmHg 48%
    13:00 +35°C° 0 mm 2 mps 756 mmHg 49%
    14:00 +34°C° 0 mm 3 mps 756 mmHg 50%
    15:00 +32°C° 0 mm 2 mps 756 mmHg 57%
    16:00 +31°C° 0 mm 2 mps 756 mmHg 64%
    17:00 +29°C° 0 mm 2 mps 756 mmHg 71%
    18:00 +28°C° 0 mm 2 mps 756 mmHg 74%
    19:00 +28°C° 0 mm 1 mps 757 mmHg 77%
    20:00 +27°C° 0 mm 1 mps 757 mmHg 80%
    21:00 +26°C° 0 mm 1 mps 757 mmHg 81%
    22:00 +26°C° 0 mm 1 mps 758 mmHg 82%
    23:00 +26°C° 0 mm 1 mps 758 mmHg 82%

    11 December, Wednesday

    Time Temperature Precipitation Wind Pressure Humidity
    00:00 +25°C° 0 mm 1 mps 757 mmHg 83%
    01:00 +25°C° 0 mm 1 mps 757 mmHg 84%
    02:00 +25°C° 0 mm 1 mps 756 mmHg 84%
    03:00 +25°C° 0 mm 1 mps 756 mmHg 84%
    04:00 +24°C° 0 mm 1 mps 757 mmHg 84%
    05:00 +24°C° 0 mm 1 mps 757 mmHg 84%
    06:00 +26°C° 0 mm 1 mps 757 mmHg 79%
    07:00 +27°C° 0 mm 1 mps 758 mmHg 74%
    08:00 +28°C° 0 mm 1 mps 758 mmHg 69%
    09:00 +30°C° 0 mm 1 mps 758 mmHg 63%
    10:00 +32°C° 0 mm 1 mps 758 mmHg 57%
    11:00 +34°C° 0 mm 1 mps 757 mmHg 50%
    12:00 +34°C° 0 mm 1 mps 757 mmHg 51%
    13:00 +35°C° 0 mm 2 mps 756 mmHg 52%
    14:00 +34°C° 0 mm 3 mps 755 mmHg 53%
    15:00 +32°C° 0 mm 2 mps 755 mmHg 60%
    16:00 +31°C° 0 mm 2 mps 755 mmHg 66%
    17:00 +29°C° 0 mm 2 mps 755 mmHg 73%
    18:00 +29°C° 0 mm 1 mps 756 mmHg 76%
    19:00 +28°C° 0 mm 1 mps 756 mmHg 79%
    20:00 +25°C° 0 mm 0 mps 757 mmHg 83%
    21:00 +26°C° 0.1 mm 1 mps 757 mmHg 84%
    22:00 +26°C° 0.1 mm 1 mps 757 mmHg 85%
    23:00 +26°C° 0.1 mm 1 mps 757 mmHg 85%

    12 December, Thursday

    Time Temperature Precipitation Wind Pressure Humidity
    00:00 +26°C° 0.2 mm 1 mps 757 mmHg 86%
    01:00 +25°C° 0.2 mm 1 mps 756 mmHg 86%
    02:00 +25°C° 0.2 mm 1 mps 756 mmHg 86%
    03:00 +25°C° 0 mm 1 mps 756 mmHg 86%
    04:00 +25°C° 0 mm 1 mps 756 mmHg 86%
    05:00 +25°C° 0 mm 1 mps 756 mmHg 85%
    06:00 +26°C° 0 mm 1 mps 757 mmHg 81%
    07:00 +27°C° 0 mm 1 mps 757 mmHg 77%
    08:00 +28°C° 0 mm 1 mps 758 mmHg 73%
    09:00 +30°C° 0 mm 1 mps 758 mmHg 66%
    10:00 +30°C° 0 mm 0 mps 758 mmHg 58%
    11:00 +32°C° 0 mm 0 mps 757 mmHg 51%
    12:00 +34°C° 0 mm 1 mps 757 mmHg 52%
    13:00 +34°C° 0 mm 2 mps 756 mmHg 53%
    14:00 +34°C° 0 mm 2 mps 755 mmHg 54%
    15:00 +32°C° 0 mm 2 mps 755 mmHg 60%
    16:00 +31°C° 0 mm 2 mps 755 mmHg 66%
    17:00 +29°C° 0 mm 1 mps 755 mmHg 73%
    18:00 +28°C° 0 mm 1 mps 756 mmHg 76%
    19:00 +28°C° 0 mm 1 mps 756 mmHg 78%
    20:00 +27°C° 0 mm 1 mps 757 mmHg 81%
    21:00 +26°C° 0 mm 1 mps 757 mmHg 82%
    22:00 +26°C° 0 mm 1 mps 757 mmHg 82%
    23:00 +26°C° 0 mm 2 mps 757 mmHg 83%

    13 December, Friday

    Time Temperature Precipitation Wind Pressure Humidity
    00:00 +25°C° 0 mm 1 mps 757 mmHg 82%
    01:00 +25°C° 0 mm 1 mps 756 mmHg 82%
    02:00 +24°C° 0 mm 1 mps 756 mmHg 82%
    03:00 +24°C° 0 mm 1 mps 756 mmHg 83%
    04:00 +24°C° 0 mm 1 mps 756 mmHg 83%
    05:00 +24°C° 0 mm 1 mps 756 mmHg 83%
    06:00 +25°C° 0 mm 1 mps 757 mmHg 79%
    07:00 +26°C° 0 mm 1 mps 758 mmHg 74%
    08:00 +27°C° 0 mm 1 mps 758 mmHg 70%
    09:00 +30°C° 0 mm 1 mps 758 mmHg 62%
    10:00 +30°C° 0 mm 0 mps 758 mmHg 54%
    11:00 +32°C° 0 mm 0 mps 758 mmHg 46%
    12:00 +34°C° 0 mm 1 mps 757 mmHg 47%
    13:00 +35°C° 0 mm 2 mps 756 mmHg 48%
    14:00 +35°C° 0 mm 2 mps 755 mmHg 48%
    15:00 +32°C° 0 mm 2 mps 755 mmHg 56%
    16:00 +31°C° 0 mm 2 mps 755 mmHg 63%
    17:00 +29°C° 0 mm 2 mps 756 mmHg 71%
    18:00 +29°C° 0 mm 2 mps 756 mmHg 74%
    19:00 +28°C° 0 mm 1 mps 757 mmHg 77%
    20:00 +27°C° 0 mm 1 mps 758 mmHg 79%
    21:00 +27°C° 0 mm 1 mps 758 mmHg 81%
    22:00 +27°C° 0 mm 1 mps 758 mmHg 82%
    23:00 +26°C° 0 mm 1 mps 758 mmHg 83%
    Show more